[[{"header":{"parameterUnit":"m.s-1","parameterCategory":2,"la1":30.2991,"la2":30.254,"lo1":-89.0895,"lo2":-89.0444,"dy":0.0017,"dx":0.0017,"nx":28,"ny":28,"refTime":"2025-03-14T21:00:00:Z","depth":"0","parameterNumber":2,"parameterNumberName":"U-component_of_CURRENTS"},"data":[0,0,0,0,0,0,0,0,0,0,0,0,0,0,0,0,0,0,0,0,0,0,0,0,0,0,0,0,0,0,0,0,0,0,0,0,0,0,0,0,0,0,0,0,0,0,0,0,0,0,0,0,0,0,0,0,0,0,0.1289,0.129,0,0.1323,0.1323,0.1323,0.1336,0.1336,0.1336,0.1336,0.1369,0.137,0.137,0,0,0,0,0,0,0,0,0,0,0,0,0,0.1257,0.1258,0.1289,0.129,0.129,0.1323,0.1323,0.1323,0.1336,0.1336,0.1336,0.1336,0.1368,0.1369,0.1371,0,0,0,0,0,0,0,0,0,0,0,0,0,0.1279,0.1258,0.1289,0.1301,0.1302,0.1322,0.1323,0.1324,0.1336,0.1336,0.1336,0.1336,0.1368,0.1369,0.1371,0.1381,0,0,0.1375,0.1375,0,0,0,0,0,0,0,0,0.1277,0.128,0.1299,0.13,0.1302,0.1326,0.1324,0.1343,0.1336,0.1323,0.1336,0.1336,0.1355,0.1357,0.1363,0.1382,0.1384,0.1375,0.1376,0.1376,0.1377,0,0,0,0,0,0,0,0.1276,0.1278,0.1302,0.1299,0.1301,0.1311,0.1314,0.1327,0.1338,0.1324,0.1325,0.133,0.1355,0.1361,0.1364,0.1384,0.1375,0.1376,0.1377,0.1378,0.1428,0.1428,0,0,0,0,0,0,0.1272,0.1277,0.1301,0.1303,0.129,0.1312,0.1315,0.1318,0.1338,0.1342,0.133,0.133,0.1359,0.1362,0.1365,0.1391,0.1376,0.1378,0.1378,0.1427,0.1428,0.1428,0,0,0,0,0,0,0.1271,0.1273,0.13,0.1291,0.1295,0.1313,0.1315,0.1318,0.1327,0.1343,0.1346,0.1335,0.1359,0.1363,0.1382,0.1391,0.1378,0.138,0.1427,0.1427,0.1428,0.1434,0,0,0,0,0,0,0.127,0.1273,0.1275,0.1291,0.1296,0.1317,0.1316,0.1319,0.133,0.1331,0.1349,0.1351,0.1359,0.138,0.1383,0.1393,0.1381,0.1426,0.1427,0.1428,0.1433,0.1435,0.1436,0,0,0,0,0,0.1268,0.1277,0.1275,0.1278,0.1297,0.1317,0.1321,0.1332,0.133,0.1338,0.1349,0.1351,0.1388,0.1381,0.1385,0.1396,0.1426,0.1427,0.1428,0.1432,0.1434,0.1436,0,0,0,0,0,0,0.127,0.128,0.1277,0.1289,0.1302,0.132,0.1332,0.1333,0.1348,0.1349,0.1358,0.1362,0.1385,0.1388,0.138,0.1413,0.1407,0.1409,0.1409,0.1411,0.1413,0.1426,0.1382,0,0,0,0,0,0.1269,0.1274,0.1286,0.1296,0.1304,0.1315,0.1324,0.133,0.1345,0.1351,0.1362,0.1376,0.1392,0.14,0.1417,0.1432,0.1445,0.1441,0.1443,0.1444,0.1458,0.1477,0.1481,0.1432,0.1432,0.1432,0,0,0.1273,0.1279,0.1282,0.1296,0.1308,0.1323,0.1321,0.1338,0.1351,0.1352,0.1375,0.1385,0.1399,0.142,0.143,0.1423,0.1466,0.1446,0.1446,0.146,0.1478,0.1483,0.1487,0.1433,0.1433,0.1433,0,0,0.1287,0.1289,0.1299,0.131,0.1325,0.1333,0.1337,0.1354,0.1362,0.138,0.1388,0.1404,0.1424,0.144,0.1449,0.1469,0.1477,0.147,0.1486,0.1503,0.1507,0.1511,0.1537,0.1543,0.1466,0.1466,0.1466,0,0.1291,0.1303,0.1307,0.1321,0.1333,0.1337,0.1354,0.1365,0.1385,0.1396,0.139,0.1427,0.1437,0.1466,0.1475,0.1474,0.1487,0.1475,0.1505,0.1509,0.1513,0.1539,0.1545,0.1466,0.1466,0.1466,0.1466,0,0.1313,0.1323,0.1334,0.1348,0.1361,0.1378,0.1391,0.1406,0.141,0.1419,0.1447,0.1458,0.1479,0.1483,0.1487,0.1519,0.1521,0.1507,0.1499,0.1518,0.1544,0.1551,0.1467,0.1467,0.1467,0.1467,0,0,0.132,0.1342,0.1347,0.1355,0.1376,0.1389,0.1413,0.1437,0.1455,0.1465,0.149,0.1514,0.1514,0.1525,0.1528,0.1544,0.1581,0.1538,0.1539,0.1563,0.1628,0.1716,0.1732,0.1567,0.1568,0.1569,0.1636,0,0.1336,0.1362,0.1371,0.1397,0.1411,0.1425,0.1446,0.1466,0.1482,0.1507,0.1518,0.1543,0.153,0.1542,0.1554,0.1585,0.1599,0.1565,0.1607,0.1609,0.1684,0.1743,0.1816,0.1889,0.1643,0.1644,0.1645,0,0.1352,0.1367,0.1392,0.1417,0.1425,0.144,0.1475,0.1494,0.1529,0.1543,0.1564,0.1575,0.1613,0.1588,0.1641,0.162,0.1627,0.164,0.1642,0.1731,0.1711,0.183,0.1911,0.1942,0.1655,0.1654,0.1654,0,0.135,0.1381,0.1398,0.1408,0.1438,0.1453,0.147,0.1504,0.1529,0.1569,0.1599,0.1625,0.1659,0.1668,0.1712,0.1673,0.1776,0.1718,0.18,0.1806,0.1884,0.1895,0.2004,0.1746,0.1746,0.1746,0.1746,0,0.1358,0.1373,0.1397,0.1408,0.143,0.145,0.1481,0.1505,0.1549,0.1595,0.1613,0.1672,0.1683,0.1743,0.1742,0.183,0.18,0.1835,0.1842,0.1889,0.19,0.1943,0.191,0.1748,0.1748,0.1747,0.1747,0,0.1346,0.1366,0.1383,0.1415,0.1426,0.1438,0.1483,0.151,0.1558,0.1622,0.1643,0.1725,0.1829,0.1857,0.1908,0.1902,0.1929,0.1975,0.2045,0.2061,0.2154,0.2118,0.1981,0.1935,0.2069,0.2071,0.2074,0,0.1342,0.1347,0.1378,0.1389,0.1401,0.1427,0.1449,0.1501,0.1542,0.167,0.1709,0.1838,0.195,0.2083,0.2125,0.2178,0.2053,0.2236,0.2174,0.2212,0.2174,0.1918,0.1868,0.2269,0.2273,0.2276,0.2279,0,0.1325,0.1331,0.1346,0.1371,0.1393,0.1422,0.1466,0.1505,0.1589,0.1675,0.1823,0.1933,0.2119,0.2267,0.236,0.2366,0.2183,0.2301,0.2318,0.2346,0.2093,0.2038,0.2168,0.2306,0.2303,0.2301,0.23,0.2299,0.1308,0.131,0.1331,0.1357,0.138,0.1423,0.146,0.1533,0.1628,0.1776,0.1884,0.2074,0.2346,0.2523,0.2513,0.2605,0.2377,0.2579,0.2532,0.2266,0.2224,0.2436,0.2594,0.2593,0.2592,0.2591,0.259,0,0.1298,0.1306,0.132,0.1359,0.1387,0.1409,0.1479,0.1532,0.1657,0.1826,0.1977,0.2312,0.2544,0.2696,0.2893,0.2865,0.2613,0.2807,0.2493,0.2434,0.2663,0.2687,0.2901,0.2901,0.2901,0.2901,0.2901,0.2901,0.1293,0.1306,0.1319,0.1364,0.1394,0.1446,0.1492,0.1582,0.1707,0.1937,0.2135,0.2285,0.2635,0.2952,0.3068,0.301,0.2768,0.2662,0.254,0.2802,0.2776,0.2751,0.277,0.2997,0.2997,0.2239,0.2234,0.2231]},{"header":{"parameterUnit":"m.s-1","parameterCategory":2,"la1":30.2991,"la2":30.254,"lo1":-89.0895,"lo2":-89.0444,"dy":0.0017,"dx":0.0017,"nx":28,"ny":28,"refTime":"2025-03-14T21:00:00:Z","depth":"0","parameterNumber":3,"parameterNumberName":"V-component_of_CURRENTS"},"data":[0,0,0,0,0,0,0,0,0,0,0,0,0,0,0,0,0,0,0,0,0,0,0,0,0,0,0,0,0,0,0,0,0,0,0,0,0,0,0,0,0,0,0,0,0,0,0,0,0,0,0,0,0,0,0,0,0,0,0.0179,0.0179,0,0.0176,0.0176,0.0175,0.0161,0.0161,0.0161,0.0161,0.0112,0.0111,0.011,0,0,0,0,0,0,0,0,0,0,0,0,0,0.016,0.016,0.0179,0.0179,0.0179,0.0176,0.0176,0.0175,0.0161,0.0161,0.0161,0.0161,0.0112,0.0111,0.011,0,0,0,0,0,0,0,0,0,0,0,0,0,0.0162,0.0161,0.0179,0.0173,0.0173,0.0176,0.0176,0.0175,0.0161,0.0161,0.0161,0.016,0.0113,0.0111,0.0109,0.0105,0,0,0.0104,0.0104,0,0,0,0,0,0,0,0,0.0162,0.0163,0.0174,0.0173,0.0173,0.017,0.0151,0.015,0.0161,0.0164,0.0161,0.016,0.0128,0.0125,0.0124,0.0103,0.01,0.0104,0.0103,0.0102,0.0102,0,0,0,0,0,0,0,0.0162,0.0163,0.0176,0.0174,0.0173,0.0166,0.0166,0.0151,0.0146,0.0164,0.0163,0.0165,0.0128,0.0126,0.0122,0.01,0.0104,0.0103,0.0102,0.0101,0.007,0.007,0,0,0,0,0,0,0.0167,0.0163,0.0176,0.0176,0.0168,0.0167,0.0166,0.017,0.0147,0.0144,0.0165,0.0165,0.0129,0.0124,0.0121,0.0117,0.0102,0.0101,0.01,0.007,0.007,0.007,0,0,0,0,0,0,0.0166,0.0168,0.0177,0.017,0.0171,0.0168,0.0171,0.017,0.0167,0.0149,0.0145,0.0164,0.0128,0.0123,0.0109,0.0115,0.01,0.0099,0.0069,0.007,0.007,0.0108,0,0,0,0,0,0,0.0166,0.0168,0.0171,0.0171,0.0172,0.0182,0.0172,0.017,0.017,0.0168,0.0146,0.0142,0.0128,0.0111,0.0107,0.0112,0.0097,0.0069,0.007,0.007,0.0107,0.011,0.0112,0,0,0,0,0,0.0165,0.0172,0.0171,0.0172,0.0176,0.0182,0.0182,0.0177,0.017,0.0172,0.0156,0.0142,0.011,0.011,0.0105,0.011,0.0069,0.007,0.007,0.0105,0.0109,0.0112,0,0,0,0,0,0,0.0164,0.0172,0.017,0.0179,0.0182,0.0181,0.0183,0.0178,0.0168,0.0164,0.0143,0.0138,0.0128,0.0113,0.0113,0.0102,0.0088,0.0087,0.0117,0.012,0.0123,0.0133,0.0096,0,0,0,0,0,0.0166,0.0174,0.0178,0.0185,0.0188,0.0185,0.0186,0.0183,0.0175,0.0171,0.0157,0.0139,0.0127,0.0118,0.0104,0.0097,0.0088,0.0097,0.0099,0.0102,0.0107,0.0105,0.0109,0.0071,0.0071,0.0071,0,0,0.0167,0.0173,0.0176,0.0185,0.0186,0.0196,0.0184,0.0188,0.0192,0.0166,0.0163,0.0148,0.0127,0.0121,0.0115,0.0108,0.0107,0.0102,0.0105,0.0109,0.0106,0.011,0.0113,0.0072,0.0072,0.0072,0,0,0.0178,0.0179,0.0191,0.0197,0.0203,0.0202,0.0204,0.0204,0.02,0.0196,0.0179,0.017,0.0148,0.014,0.013,0.0139,0.0122,0.0132,0.0155,0.0153,0.0156,0.0159,0.015,0.0152,0.0133,0.0133,0.0133,0,0.0178,0.0196,0.0194,0.0209,0.0217,0.0207,0.0222,0.0217,0.0211,0.0211,0.0198,0.0178,0.0159,0.0156,0.016,0.0147,0.014,0.0145,0.0158,0.016,0.0163,0.0152,0.0154,0.0135,0.0135,0.0135,0.0135,0,0.0202,0.0215,0.0223,0.0238,0.0244,0.0255,0.0253,0.0252,0.0243,0.024,0.0234,0.0211,0.0201,0.0193,0.0178,0.0185,0.0173,0.0163,0.0152,0.0169,0.0157,0.0157,0.0138,0.0137,0.0137,0.0136,0,0,0.0205,0.0235,0.0237,0.0252,0.0262,0.027,0.0275,0.0282,0.0288,0.0275,0.0284,0.0261,0.025,0.0239,0.0219,0.0216,0.0223,0.0199,0.0198,0.0195,0.0215,0.0189,0.0187,0.0217,0.0218,0.0218,0.02,0,0.0224,0.0262,0.0268,0.0296,0.0314,0.031,0.0318,0.032,0.0314,0.0318,0.0296,0.0295,0.0266,0.0262,0.0255,0.0235,0.0227,0.0228,0.0195,0.0194,0.0173,0.0188,0.0229,0.0215,0.02,0.02,0.02,0,0.0246,0.0269,0.0305,0.0332,0.0339,0.035,0.0364,0.0369,0.0369,0.0365,0.0358,0.0342,0.0334,0.0306,0.028,0.0282,0.0252,0.0232,0.0231,0.0195,0.0169,0.0196,0.0217,0.0138,0.0201,0.0201,0.0201,0,0.0257,0.0293,0.0324,0.0335,0.0362,0.0371,0.0379,0.0384,0.0399,0.0395,0.0411,0.0387,0.0388,0.0349,0.0301,0.0294,0.027,0.0254,0.0199,0.0196,0.0219,0.0218,0.0166,0.0234,0.0234,0.0234,0.0234,0,0.0277,0.0299,0.0332,0.035,0.0381,0.0389,0.0416,0.0419,0.0436,0.0475,0.0437,0.0468,0.0402,0.0379,0.0321,0.0264,0.0283,0.0207,0.0193,0.0232,0.0232,0.0153,0.0091,0.0233,0.0234,0.0234,0.0234,0,0.0284,0.0307,0.0343,0.0378,0.0389,0.0409,0.0446,0.0471,0.048,0.0531,0.0537,0.0535,0.0514,0.0433,0.0375,0.0299,0.0204,0.0209,0.0252,0.0243,0.0109,0.0048,-0.0015,-0.0018,0.0149,0.0149,0.0148,0,0.0292,0.0313,0.0363,0.039,0.0406,0.0438,0.0468,0.0488,0.0527,0.0588,0.0626,0.0617,0.0653,0.0535,0.0392,0.0275,0.0201,0.0206,0.0195,0.0109,0.003,0.0006,0.0007,0.0241,0.0241,0.0241,0.0241,0,0.0304,0.0322,0.0356,0.0416,0.0454,0.0501,0.0549,0.0595,0.0643,0.0715,0.0817,0.0856,0.074,0.0666,0.046,0.0354,0.0166,0.0203,0.0117,0.0096,0.0067,0.0056,0.0233,0.0243,0.0243,0.0243,0.0243,0.0243,0.031,0.034,0.0393,0.045,0.0499,0.0578,0.0648,0.0731,0.084,0.1011,0.1004,0.1175,0.0985,0.0729,0.0494,0.0167,0.0175,0.0111,0.0044,0.0028,0.0022,0.0189,0.0175,0.0175,0.0174,0.0174,0.0174,0,0.0326,0.037,0.0426,0.051,0.0586,0.0605,0.0719,0.0837,0.1019,0.1222,0.1363,0.1509,0.1201,0.0877,0.0391,0.0101,0.0015,-0.0047,-0.0059,-0.0048,0.0112,0.0113,0.0083,0.0083,0.0083,0.0083,0.0083,0.0083,0.0336,0.04,0.0441,0.0575,0.0645,0.078,0.0868,0.1067,0.1266,0.1651,0.1912,0.207,0.1965,0.0878,0.021,-0.0006,-0.0172,-0.0246,-0.0309,-0.0206,-0.0195,-0.0185,-0.0197,-0.0292,-0.0292,-0.0383,-0.0385,-0.0386]}],[{"header":{"parameterUnit":"m.s-1","parameterCategory":2,"la1":30.2991,"la2":30.254,"lo1":-89.0895,"lo2":-89.0444,"dy":0.0017,"dx":0.0017,"nx":28,"ny":28,"refTime":"2025-03-14T21:00:00:Z","depth":"2","parameterNumber":2,"parameterNumberName":"U-component_of_CURRENTS"},"data":[0,0,0,0,0,0,0,0,0,0,0,0,0,0,0,0,0,0,0,0,0,0,0,0,0,0,0,0,0,0,0,0,0,0,0,0,0,0,0,0,0,0,0,0,0,0,0,0,0,0,0,0,0,0,0,0,0,0,0.1214,0.1215,0,0.1247,0.1247,0.1247,0.1262,0.1262,0.1262,0.1262,0.1296,0.1297,0.1298,0,0,0,0,0,0,0,0,0,0,0,0,0,0.1183,0.1184,0.1214,0.1215,0.1215,0.1246,0.1247,0.1247,0.1262,0.1262,0.1262,0.1262,0.1296,0.1297,0.1298,0,0,0,0,0,0,0,0,0,0,0,0,0,0.1204,0.1184,0.1214,0.1227,0.1228,0.1246,0.1247,0.1247,0.1262,0.1262,0.1262,0.1262,0.1296,0.1297,0.1298,0.1306,0,0,0.1302,0.1303,0,0,0,0,0,0,0,0,0.1203,0.1205,0.1224,0.1226,0.1228,0.1251,0.1249,0.1267,0.1262,0.1249,0.1262,0.1262,0.1282,0.1284,0.1289,0.1307,0.1309,0.1302,0.1303,0.1304,0.1304,0,0,0,0,0,0,0,0.1201,0.1204,0.1226,0.1225,0.1227,0.1237,0.124,0.1252,0.1264,0.125,0.1251,0.1256,0.1282,0.1288,0.129,0.1309,0.1302,0.1303,0.1304,0.1305,0.1353,0.1354,0,0,0,0,0,0,0.1197,0.1202,0.1225,0.1227,0.1216,0.1237,0.124,0.1243,0.1264,0.1267,0.1256,0.1256,0.1286,0.1289,0.1291,0.1318,0.1304,0.1305,0.1306,0.1353,0.1353,0.1354,0,0,0,0,0,0,0.1196,0.1199,0.1224,0.1216,0.122,0.1238,0.1241,0.1243,0.1253,0.1268,0.1272,0.1262,0.1286,0.1289,0.1308,0.1319,0.1306,0.1307,0.1352,0.1353,0.1354,0.136,0,0,0,0,0,0,0.1195,0.1198,0.1201,0.1216,0.122,0.1241,0.1241,0.1244,0.1256,0.1257,0.1275,0.1278,0.1286,0.1306,0.131,0.132,0.1308,0.1352,0.1353,0.1354,0.136,0.1361,0.1363,0,0,0,0,0,0.1194,0.1203,0.12,0.1203,0.1222,0.1241,0.1245,0.1257,0.1256,0.1264,0.1275,0.1278,0.1315,0.1308,0.1312,0.1323,0.1351,0.1352,0.1353,0.1359,0.1361,0.1363,0,0,0,0,0,0,0.1197,0.1206,0.1203,0.1215,0.1227,0.1244,0.1257,0.1258,0.1273,0.1275,0.1284,0.1288,0.1312,0.1315,0.1307,0.134,0.1333,0.1335,0.1336,0.1338,0.134,0.1353,0.1309,0,0,0,0,0,0.1196,0.1201,0.1212,0.1222,0.1229,0.124,0.1249,0.1256,0.127,0.1277,0.1288,0.1302,0.1319,0.1326,0.1343,0.1357,0.1371,0.1367,0.1369,0.137,0.1384,0.1402,0.1407,0.1358,0.1358,0.1358,0,0,0.12,0.1205,0.1209,0.1222,0.1233,0.1248,0.1247,0.1264,0.1276,0.1278,0.1301,0.1311,0.1325,0.1346,0.1356,0.1349,0.1392,0.1372,0.1372,0.1386,0.1404,0.1409,0.1413,0.1358,0.1358,0.1358,0,0,0.1214,0.1216,0.1225,0.1236,0.1252,0.1259,0.1263,0.128,0.1288,0.1306,0.1314,0.1331,0.1351,0.1366,0.1375,0.1395,0.1403,0.1396,0.1412,0.1429,0.1433,0.1437,0.1462,0.1468,0.1392,0.1392,0.1392,0,0.1218,0.1229,0.1233,0.1247,0.1259,0.1263,0.1279,0.129,0.131,0.1321,0.1316,0.1353,0.1363,0.1392,0.1401,0.14,0.1412,0.1401,0.1431,0.1435,0.1439,0.1464,0.1471,0.1393,0.1393,0.1392,0.1392,0,0.1239,0.1249,0.126,0.1274,0.1286,0.1303,0.1315,0.133,0.1335,0.1344,0.1372,0.1383,0.1405,0.1409,0.1413,0.1445,0.1447,0.1433,0.1425,0.1445,0.1469,0.1476,0.1393,0.1393,0.1393,0.1393,0,0,0.1248,0.1268,0.1273,0.1281,0.1301,0.1314,0.1337,0.136,0.1378,0.1389,0.1414,0.1438,0.144,0.1451,0.1453,0.1469,0.1507,0.1465,0.1465,0.1489,0.1554,0.1639,0.1655,0.1494,0.1495,0.1496,0.1561,0,0.1263,0.1288,0.1297,0.1322,0.1335,0.1349,0.1369,0.1389,0.1405,0.143,0.1441,0.1467,0.1455,0.1468,0.148,0.1511,0.1525,0.1491,0.1533,0.1535,0.1608,0.1666,0.1517,0.1569,0.1567,0.1568,0.1569,0,0.128,0.1294,0.1318,0.1341,0.135,0.1365,0.1399,0.1417,0.1451,0.1466,0.1487,0.1498,0.1537,0.1513,0.1566,0.1545,0.1553,0.1566,0.1568,0.1654,0.1634,0.155,0.1582,0.1581,0.158,0.1579,0.1578,0,0.1278,0.1309,0.1325,0.1335,0.1363,0.1379,0.1395,0.1428,0.1453,0.1492,0.1523,0.1548,0.1584,0.1592,0.1636,0.1598,0.17,0.1643,0.1723,0.1728,0.1616,0.1612,0.1671,0.1671,0.167,0.167,0.167,0,0.1287,0.1302,0.1325,0.1336,0.1358,0.1377,0.1408,0.1432,0.1475,0.152,0.1538,0.1595,0.1608,0.1667,0.1666,0.1752,0.1724,0.1756,0.1763,0.1617,0.1612,0.1628,0.1622,0.1673,0.1672,0.1672,0.1671,0,0.1277,0.1296,0.1313,0.1344,0.1355,0.1367,0.1412,0.1438,0.1486,0.1549,0.157,0.1651,0.1754,0.1781,0.1831,0.1823,0.187,0.1894,0.1743,0.1733,0.1866,0.1859,0.1977,0.1981,0.1984,0.1987,0.1989,0,0.1273,0.1279,0.1309,0.132,0.1332,0.1358,0.138,0.1431,0.1471,0.1597,0.1636,0.1763,0.1866,0.1996,0.199,0.2027,0.2004,0.1919,0.1828,0.191,0.1903,0.1891,0.1881,0.1662,0.1662,0.1661,0.1661,0,0.1256,0.1263,0.1278,0.1303,0.1325,0.1353,0.1397,0.1435,0.1518,0.1596,0.174,0.1842,0.1981,0.1996,0.2067,0.2043,0.1904,0.1918,0.2031,0.1641,0.1628,0.1617,0.1613,0.1657,0.1657,0.1657,0.1658,0.1658,0.124,0.1241,0.1262,0.1289,0.1312,0.1353,0.1389,0.1425,0.1506,0.1591,0.1739,0.1829,0.19,0.1953,0.1921,0.1873,0.1989,0.1876,0.187,0.1866,0.1851,0.1848,0.1915,0.1917,0.1918,0.192,0.1921,0,0.1213,0.1237,0.1251,0.1289,0.1293,0.1339,0.1406,0.1386,0.1451,0.1547,0.1642,0.1579,0.1671,0.1727,0.1668,0.1704,0.1573,0.1629,0.1437,0.1448,0.1456,0.141,0.1361,0.1359,0.1357,0.1354,0,0,0.1202,0.1207,0.1219,0.1248,0.1294,0.1293,0.1336,0.1292,0.1318,0.1311,0.1368,0.154,0.1703,0.149,0.1496,0.1431,0.1397,0.1362,0.1825,0.1612,0.1615,0.1637,0.1588,0,0,0,0,0]},{"header":{"parameterUnit":"m.s-1","parameterCategory":2,"la1":30.2991,"la2":30.254,"lo1":-89.0895,"lo2":-89.0444,"dy":0.0017,"dx":0.0017,"nx":28,"ny":28,"refTime":"2025-03-14T21:00:00:Z","depth":"2","parameterNumber":3,"parameterNumberName":"V-component_of_CURRENTS"},"data":[0,0,0,0,0,0,0,0,0,0,0,0,0,0,0,0,0,0,0,0,0,0,0,0,0,0,0,0,0,0,0,0,0,0,0,0,0,0,0,0,0,0,0,0,0,0,0,0,0,0,0,0,0,0,0,0,0,0,0.014,0.014,0,0.0138,0.0137,0.0137,0.0124,0.0124,0.0123,0.0123,0.0076,0.0075,0.0073,0,0,0,0,0,0,0,0,0,0,0,0,0,0.012,0.0121,0.014,0.014,0.0141,0.0138,0.0137,0.0137,0.0124,0.0124,0.0123,0.0123,0.0076,0.0075,0.0073,0,0,0,0,0,0,0,0,0,0,0,0,0,0.0123,0.0121,0.014,0.0135,0.0134,0.0138,0.0137,0.0137,0.0124,0.0124,0.0123,0.0123,0.0076,0.0075,0.0073,0.0068,0,0,0.0068,0.0067,0,0,0,0,0,0,0,0,0.0123,0.0124,0.0135,0.0135,0.0135,0.0132,0.0113,0.0112,0.0124,0.0126,0.0123,0.0123,0.0092,0.0089,0.0087,0.0066,0.0064,0.0068,0.0067,0.0066,0.0066,0,0,0,0,0,0,0,0.0123,0.0124,0.0138,0.0136,0.0135,0.0128,0.0128,0.0113,0.0108,0.0126,0.0125,0.0128,0.0091,0.0089,0.0086,0.0063,0.0068,0.0067,0.0065,0.0065,0.0034,0.0034,0,0,0,0,0,0,0.0127,0.0124,0.0138,0.0138,0.013,0.0128,0.0128,0.0132,0.0109,0.0107,0.0128,0.0127,0.0092,0.0088,0.0084,0.0081,0.0066,0.0065,0.0064,0.0034,0.0034,0.0035,0,0,0,0,0,0,0.0127,0.0129,0.0138,0.0132,0.0132,0.0129,0.0133,0.0132,0.013,0.0112,0.0108,0.0127,0.0091,0.0086,0.0073,0.0079,0.0064,0.0062,0.0034,0.0034,0.0034,0.0073,0,0,0,0,0,0,0.0126,0.0129,0.0132,0.0132,0.0133,0.0143,0.0134,0.0132,0.0132,0.0131,0.0109,0.0105,0.0091,0.0075,0.0071,0.0077,0.0061,0.0034,0.0034,0.0034,0.0071,0.0074,0.0077,0,0,0,0,0,0.0126,0.0133,0.0132,0.0133,0.0138,0.0144,0.0144,0.0139,0.0132,0.0135,0.0119,0.0105,0.0074,0.0074,0.0069,0.0074,0.0034,0.0034,0.0034,0.007,0.0074,0.0077,0,0,0,0,0,0,0.0125,0.0133,0.0131,0.014,0.0143,0.0142,0.0145,0.0141,0.0131,0.0127,0.0107,0.0101,0.0092,0.0077,0.0077,0.0066,0.0052,0.0051,0.0081,0.0084,0.0087,0.0097,0.006,0,0,0,0,0,0.0127,0.0135,0.0139,0.0146,0.0149,0.0146,0.0148,0.0145,0.0138,0.0134,0.012,0.0103,0.0091,0.0082,0.0069,0.0061,0.0052,0.0061,0.0064,0.0067,0.0072,0.0069,0.0073,0.0036,0.0036,0.0036,0,0,0.0128,0.0134,0.0137,0.0146,0.0148,0.0157,0.0146,0.0151,0.0155,0.0129,0.0127,0.0112,0.0091,0.0085,0.008,0.0072,0.0071,0.0067,0.007,0.0073,0.007,0.0074,0.0077,0.0036,0.0036,0.0036,0,0,0.0139,0.014,0.0152,0.0158,0.0165,0.0164,0.0166,0.0167,0.0162,0.0159,0.0143,0.0134,0.0113,0.0104,0.0095,0.0104,0.0087,0.0097,0.012,0.0117,0.0121,0.0123,0.0114,0.0115,0.0098,0.0099,0.0099,0,0.0139,0.0157,0.0156,0.0171,0.0178,0.0169,0.0184,0.0179,0.0173,0.0173,0.0162,0.0142,0.0123,0.0121,0.0124,0.0112,0.0105,0.011,0.0122,0.0125,0.0127,0.0116,0.0117,0.01,0.01,0.01,0.01,0,0.0163,0.0175,0.0184,0.02,0.0205,0.0216,0.0214,0.0214,0.0205,0.0203,0.0197,0.0175,0.0164,0.0157,0.0142,0.0149,0.0137,0.0128,0.0116,0.0133,0.012,0.0121,0.0103,0.0102,0.0102,0.0101,0,0,0.0166,0.0195,0.0198,0.0213,0.0223,0.0232,0.0236,0.0243,0.0249,0.0237,0.0245,0.0223,0.0213,0.0202,0.0183,0.018,0.0186,0.0163,0.0162,0.0158,0.0178,0.015,0.0148,0.0181,0.0181,0.0182,0.0162,0,0.0185,0.0222,0.0229,0.0257,0.0275,0.0271,0.0279,0.0281,0.0275,0.0279,0.0258,0.0257,0.0229,0.0226,0.0218,0.0198,0.019,0.0192,0.0158,0.0156,0.0135,0.0149,0.0133,0.0113,0.0162,0.0162,0.0162,0,0.0207,0.023,0.0266,0.0293,0.03,0.0311,0.0325,0.033,0.0329,0.0326,0.0319,0.0303,0.0295,0.0268,0.0241,0.0245,0.0214,0.0194,0.0193,0.0156,0.0131,0.0104,0.0112,0.0163,0.0163,0.0163,0.0163,0,0.0219,0.0254,0.0285,0.0296,0.0323,0.0332,0.0341,0.0345,0.036,0.0356,0.0372,0.0347,0.0349,0.0309,0.0262,0.0255,0.0231,0.0215,0.0159,0.0156,0.013,0.0124,0.0194,0.0194,0.0194,0.0194,0.0194,0,0.0239,0.0261,0.0294,0.0311,0.0343,0.035,0.0378,0.038,0.0397,0.0436,0.0398,0.0428,0.0362,0.0339,0.0281,0.0223,0.0243,0.0166,0.0152,0.0141,0.0137,0.017,0.0167,0.0193,0.0193,0.0194,0.0194,0,0.0246,0.0269,0.0306,0.0341,0.0352,0.0372,0.0409,0.0434,0.0442,0.0492,0.0499,0.0495,0.0473,0.0393,0.0334,0.0258,0.0197,0.0167,0.0152,0.0137,0.0117,0.0117,0.0107,0.0106,0.0105,0.0104,0.0104,0,0.0256,0.0276,0.0327,0.0354,0.037,0.0402,0.0432,0.0451,0.049,0.055,0.0587,0.0577,0.0608,0.0488,0.0331,0.0209,0.0204,0.0101,0.0083,0.0123,0.011,0.0111,0.0112,0.0061,0.006,0.0059,0.0059,0,0.0268,0.0286,0.032,0.0381,0.0418,0.0466,0.0514,0.056,0.0607,0.0675,0.0775,0.0808,0.0676,0.0553,0.034,0.024,0.0116,0.0082,0.0136,0.0084,0.0077,0.0065,0.0068,0.0052,0.0053,0.0053,0.0054,0.0054,0.0275,0.0305,0.0358,0.0415,0.0464,0.0543,0.0613,0.0682,0.0786,0.0914,0.0916,0.0993,0.0784,0.055,0.0314,0.006,0.0098,0.0018,0.0021,0.0025,0.0022,0.0014,-0.0024,-0.0024,-0.0024,-0.0024,-0.0024,0,0.0287,0.0335,0.0391,0.0476,0.0545,0.0571,0.0685,0.0776,0.0935,0.1045,0.1141,0.0995,0.0817,0.0588,0.0206,-0.0023,-0.0055,-0.0098,-0.0081,-0.0073,-0.0066,-0.0074,-0.0145,-0.0146,-0.0147,-0.0148,0,0,0.0296,0.0357,0.0398,0.0528,0.0603,0.0727,0.0814,0.0961,0.1077,0.1215,0.1279,0.1264,0.0973,0.0674,0.0326,0.0106,0.0072,0.0048,0.0169,0.0237,0.0247,0.002,0.002,0,0,0,0,0]}],[{"header":{"parameterUnit":"m.s-1","parameterCategory":2,"la1":30.2991,"la2":30.254,"lo1":-89.0895,"lo2":-89.0444,"dy":0.0017,"dx":0.0017,"nx":28,"ny":28,"refTime":"2025-03-14T21:00:00:Z","depth":"4","parameterNumber":2,"parameterNumberName":"U-component_of_CURRENTS"},"data":[0,0,0,0,0,0,0,0,0,0,0,0,0,0,0,0,0,0,0,0,0,0,0,0,0,0,0,0,0,0,0,0,0,0,0,0,0,0,0,0,0,0,0,0,0,0,0,0,0,0,0,0,0,0,0,0,0,0,0.0321,0.0322,0,0.0348,0.0348,0.0348,0.0382,0.0383,0.0384,0.0385,0.0496,0.0498,0.05,0,0,0,0,0,0,0,0,0,0,0,0,0,0.0274,0.0274,0.0321,0.0322,0.0323,0.0348,0.0348,0.0348,0.0381,0.0383,0.0384,0.0385,0.0495,0.0497,0.05,0,0,0,0,0,0,0,0,0,0,0,0,0,0.0291,0.0274,0.032,0.0347,0.0351,0.0348,0.0348,0.0347,0.0381,0.0383,0.0385,0.0386,0.0494,0.0497,0.05,0.0483,0,0,0.0509,0.051,0,0,0,0,0,0,0,0,0.029,0.0291,0.0343,0.0346,0.0349,0.0369,0.0372,0.0399,0.0381,0.0362,0.0385,0.0387,0.0464,0.047,0.046,0.0488,0.0493,0.0509,0.0511,0.0512,0.0513,0,0,0,0,0,0,0,0.0288,0.029,0.0325,0.0344,0.0348,0.0351,0.0354,0.0377,0.04,0.0364,0.0368,0.0382,0.0466,0.0457,0.0463,0.0494,0.0509,0.0511,0.0513,0.0514,0.0591,0.0592,0,0,0,0,0,0,0.0298,0.0289,0.0324,0.0326,0.0331,0.0351,0.0355,0.0355,0.0398,0.0407,0.038,0.0383,0.0452,0.046,0.0468,0.0539,0.0512,0.0514,0.0516,0.0591,0.0591,0.0592,0,0,0,0,0,0,0.0296,0.03,0.0323,0.0315,0.0319,0.0351,0.0351,0.0355,0.0379,0.041,0.042,0.0404,0.0453,0.0464,0.0515,0.0541,0.0516,0.0518,0.0591,0.0591,0.0592,0.0626,0,0,0,0,0,0,0.0295,0.0299,0.0307,0.0315,0.032,0.0344,0.035,0.0355,0.0386,0.0391,0.0434,0.0443,0.0455,0.0511,0.0518,0.0544,0.052,0.059,0.0591,0.0591,0.0624,0.0627,0.063,0,0,0,0,0,0.0293,0.0305,0.0307,0.0312,0.0328,0.0346,0.0348,0.0372,0.0386,0.0398,0.043,0.0444,0.052,0.0514,0.0522,0.055,0.059,0.0591,0.0591,0.0623,0.0627,0.063,0,0,0,0,0,0,0.0301,0.0311,0.0313,0.0331,0.0346,0.0355,0.0374,0.0385,0.0414,0.0425,0.0453,0.0465,0.0518,0.0524,0.0516,0.057,0.0555,0.0558,0.0576,0.058,0.0583,0.0582,0.0523,0,0,0,0,0,0.0302,0.031,0.0322,0.034,0.0348,0.0361,0.0374,0.0386,0.0412,0.0426,0.0459,0.0489,0.0518,0.0544,0.0566,0.06,0.0609,0.0619,0.0622,0.0625,0.0628,0.0659,0.0665,0.0595,0.0595,0.0595,0,0,0.0308,0.032,0.0324,0.0342,0.0353,0.0364,0.0373,0.0398,0.0414,0.0434,0.0479,0.0506,0.0529,0.0567,0.059,0.0583,0.065,0.0626,0.0628,0.063,0.066,0.0667,0.0674,0.0595,0.0595,0.0595,0,0,0.0323,0.0336,0.0342,0.0355,0.038,0.0385,0.04,0.042,0.0438,0.0475,0.0495,0.0536,0.0582,0.0601,0.0615,0.0646,0.0665,0.0658,0.0679,0.0709,0.0715,0.0721,0.0747,0.0755,0.066,0.066,0.066,0,0.0332,0.0338,0.0351,0.0363,0.0379,0.0399,0.041,0.0426,0.0464,0.0486,0.05,0.0572,0.0593,0.0639,0.065,0.0655,0.0676,0.0667,0.0714,0.072,0.0725,0.0751,0.0759,0.0662,0.0662,0.0662,0.0661,0,0.0336,0.0353,0.0365,0.0379,0.0399,0.0415,0.0437,0.0461,0.049,0.0515,0.0577,0.0605,0.0654,0.0662,0.067,0.0719,0.0724,0.0716,0.0708,0.0735,0.0759,0.0767,0.0664,0.0664,0.0663,0.0663,0,0,0.033,0.0355,0.0366,0.0376,0.0407,0.0424,0.0452,0.0484,0.0515,0.0562,0.0612,0.0658,0.0694,0.0711,0.073,0.075,0.0805,0.0755,0.0756,0.0786,0.0882,0.0847,0.0852,0.0815,0.0817,0.0818,0.0886,0,0.033,0.0347,0.0366,0.0397,0.0406,0.0434,0.0466,0.0504,0.0541,0.0597,0.064,0.0702,0.0708,0.0745,0.0771,0.0801,0.0827,0.0788,0.0846,0.0848,0.0818,0.086,0.0822,0.0892,0.0894,0.0895,0.0896,0,0.0327,0.034,0.036,0.0402,0.0412,0.0444,0.0495,0.0524,0.0595,0.063,0.0697,0.0744,0.0809,0.0798,0.0873,0.0856,0.0876,0.0885,0.0888,0.0848,0.0828,0.0858,0.091,0.0909,0.0908,0.0907,0.0906,0,0.0306,0.0344,0.036,0.0373,0.042,0.045,0.0485,0.0548,0.0586,0.0667,0.0719,0.0793,0.0864,0.0889,0.0943,0.0915,0.1015,0.0974,0.0958,0.0955,0.0951,0.0944,0.1017,0.1017,0.1017,0.1016,0.1016,0,0.0291,0.0313,0.0361,0.0369,0.0411,0.0457,0.0509,0.0548,0.0629,0.0687,0.0757,0.0818,0.0895,0.0968,0.0971,0.1011,0.105,0.0973,0.0975,0.0963,0.0957,0.0957,0.0949,0.1019,0.1018,0.1018,0.1018,0,0.0269,0.0294,0.031,0.0367,0.04,0.0431,0.0522,0.055,0.0643,0.0719,0.0759,0.0878,0.097,0.1036,0.1097,0.1067,0.1082,0.1084,0.1092,0.1092,0.0987,0.098,0.1047,0.1047,0.1046,0.1046,0.1045,0,0.0248,0.0252,0.0306,0.0327,0.0361,0.0423,0.0459,0.0544,0.0584,0.074,0.0776,0.0921,0.0988,0.107,0.1113,0.1142,0.1124,0.1119,0.1019,0.0997,0.0993,0.0987,0.0981,0.1045,0.1045,0.1044,0.1044,0,0.0197,0.0222,0.0239,0.0285,0.0325,0.0366,0.044,0.0468,0.0573,0.0672,0.0795,0.0869,0.0987,0.1048,0.1117,0.1113,0.1105,0.1113,0.1112,0.1018,0.0995,0.099,0.0984,0.1043,0.1043,0.1043,0.1043,0,0.0157,0.0161,0.0191,0.0233,0.0267,0.0302,0.0345,0.0428,0.0493,0.0677,0.0712,0.0862,0.0984,0.1035,0.1073,0.1104,0.1056,0.0986,0.0991,0.0993,0.0943,0.0904,0.0938,0,0,0,0,0,0.0103,0.0113,0.0146,0.0171,0.0196,0.0243,0.0327,0.0376,0.0485,0.0557,0.0647,0.0751,0.086,0.0928,0.0947,0.1006,0.1031,0.1016,0.0943,0.1033,0.1035,0.0981,0,0,0,0,0,0,0.0064,0.0083,0.0122,0.0106,0.0129,0.0162,0.0216,0.0299,0.0361,0.0495,0.0571,0.0687,0.0808,0.0855,0.093,0.0948,0.088,0.1111,0.1108,0.1032,0.1034,0.1036,0.0981,0,0,0,0,0]},{"header":{"parameterUnit":"m.s-1","parameterCategory":2,"la1":30.2991,"la2":30.254,"lo1":-89.0895,"lo2":-89.0444,"dy":0.0017,"dx":0.0017,"nx":28,"ny":28,"refTime":"2025-03-14T21:00:00:Z","depth":"4","parameterNumber":3,"parameterNumberName":"V-component_of_CURRENTS"},"data":[0,0,0,0,0,0,0,0,0,0,0,0,0,0,0,0,0,0,0,0,0,0,0,0,0,0,0,0,0,0,0,0,0,0,0,0,0,0,0,0,0,0,0,0,0,0,0,0,0,0,0,0,0,0,0,0,0,0,-0.003,-0.003,0,-0.0009,-0.0009,-0.0009,-0.0021,-0.0022,-0.0022,-0.0023,-0.0053,-0.0053,-0.0054,0,0,0,0,0,0,0,0,0,0,0,0,0,-0.0075,-0.0075,-0.003,-0.003,-0.0029,-0.0009,-0.0009,-0.0009,-0.0021,-0.0022,-0.0022,-0.0023,-0.0053,-0.0053,-0.0054,0,0,0,0,0,0,0,0,0,0,0,0,0,-0.0057,-0.0075,-0.003,-0.0031,-0.0031,-0.0009,-0.0009,-0.0009,-0.0021,-0.0022,-0.0022,-0.0023,-0.0052,-0.0053,-0.0054,-0.0046,0,0,-0.0056,-0.0056,0,0,0,0,0,0,0,0,-0.0058,-0.0056,-0.0032,-0.0031,-0.0031,-0.0016,-0.0036,-0.0023,-0.0021,-0.0027,-0.0023,-0.0023,-0.0043,-0.0045,-0.0042,-0.0048,-0.0049,-0.0056,-0.0056,-0.0057,-0.0057,0,0,0,0,0,0,0,-0.006,-0.0057,-0.0024,-0.0031,-0.003,-0.0031,-0.0029,-0.0034,-0.0035,-0.0027,-0.0027,-0.0021,-0.0044,-0.0041,-0.0043,-0.0049,-0.0056,-0.0056,-0.0057,-0.0057,-0.0052,-0.0051,0,0,0,0,0,0,-0.0057,-0.0058,-0.0025,-0.0023,-0.0044,-0.0029,-0.0028,-0.0022,-0.0034,-0.0035,-0.002,-0.0022,-0.004,-0.0042,-0.0044,-0.0036,-0.0057,-0.0057,-0.0058,-0.0052,-0.0052,-0.0051,0,0,0,0,0,0,-0.0058,-0.0054,-0.0026,-0.0038,-0.0035,-0.0028,-0.0022,-0.0022,-0.0021,-0.0028,-0.0031,-0.0021,-0.0041,-0.0043,-0.0043,-0.0037,-0.0057,-0.0058,-0.0053,-0.0052,-0.0051,-0.0019,0,0,0,0,0,0,-0.006,-0.0055,-0.0052,-0.0038,-0.0034,-0.0011,-0.0021,-0.0021,-0.0015,-0.0017,-0.0029,-0.0032,-0.0041,-0.0042,-0.0044,-0.0038,-0.0059,-0.0054,-0.0052,-0.0051,-0.0021,-0.0017,-0.0014,0,0,0,0,0,-0.0061,-0.0051,-0.0052,-0.0048,-0.0029,-0.0011,-0.0008,-0.0007,-0.0015,-0.0011,-0.0016,-0.0032,-0.0037,-0.0042,-0.0044,-0.0039,-0.0054,-0.0053,-0.0052,-0.0022,-0.0018,-0.0014,0,0,0,0,0,0,-0.0071,-0.0051,-0.0052,-0.0037,-0.0025,-0.0012,-0.0005,-0.0006,-0.0006,-0.0012,-0.0023,-0.0026,-0.0025,-0.0034,-0.0039,-0.0034,-0.0049,-0.0048,-0.0026,-0.0022,-0.0019,-0.0022,-0.0059,0,0,0,0,0,-0.0071,-0.0059,-0.0042,-0.0031,-0.0023,-0.0015,-0.0008,-0.0008,-0.0004,-0.0005,-0.0009,-0.0017,-0.002,-0.0023,-0.0027,-0.0023,-0.0037,-0.0021,-0.0018,-0.0015,-0.0019,-0.0028,-0.0026,-0.0047,-0.0047,-0.0047,0,0,-0.0072,-0.0059,-0.0053,-0.0033,-0.0023,-0.0007,-0.0013,-0.0001,0.0008,-0.0009,0.0001,-0.0006,-0.0016,-0.0011,-0.0011,-0.0018,-0.0016,-0.0014,-0.0011,-0.0016,-0.0026,-0.0024,-0.0023,-0.0046,-0.0046,-0.0046,0,0,-0.0064,-0.0056,-0.0041,-0.0028,-0.001,-0.0003,0.0001,0.0015,0.0017,0.0026,0.0017,0.0015,0.0013,0.0009,0.0005,0.0024,0.0001,0.0023,0.0037,0.0029,0.0031,0.0032,0.0019,0.0018,0.0025,0.0026,0.0026,0,-0.0067,-0.0045,-0.0035,-0.0016,-0.0002,-0.0,0.0018,0.0023,0.0034,0.0037,0.003,0.003,0.0021,0.0026,0.0033,0.003,0.0021,0.0023,0.0033,0.0034,0.0034,0.002,0.002,0.0027,0.0027,0.0027,0.0027,0,-0.0046,-0.0028,-0.0017,0.0008,0.0022,0.0038,0.0051,0.0056,0.0056,0.006,0.0064,0.0058,0.0056,0.0055,0.0049,0.0053,0.0043,0.0038,0.0022,0.0038,0.0023,0.0021,0.003,0.0029,0.0029,0.0028,0,0,-0.005,-0.001,-0.0005,0.0013,0.0036,0.0052,0.0064,0.008,0.0087,0.0089,0.0099,0.0094,0.0088,0.0084,0.0078,0.0071,0.0068,0.0058,0.0057,0.0043,0.0047,0.0018,0.0014,0.0066,0.0065,0.0065,0.0035,0,-0.0036,0.0006,0.0021,0.0055,0.0079,0.0084,0.01,0.0109,0.0111,0.0121,0.0109,0.0116,0.0101,0.0103,0.0094,0.0074,0.0065,0.0076,0.0034,0.0032,0.0004,0.0012,0.0065,0.0034,0.0033,0.0033,0.0033,0,-0.0019,0.0011,0.0049,0.0087,0.0098,0.0115,0.0137,0.0149,0.0153,0.0155,0.0152,0.0145,0.0137,0.0123,0.0091,0.01,0.0075,0.0056,0.0054,0.0013,0.0001,0.0013,0.003,0.003,0.003,0.003,0.0031,0,-0.0015,0.0029,0.0062,0.0076,0.0117,0.013,0.0146,0.0158,0.0178,0.0176,0.0188,0.017,0.0172,0.0134,0.0093,0.0094,0.0052,0.0049,-0.0002,-0.0004,0.0016,0.0015,0.0023,0.0023,0.0023,0.0023,0.0024,0,0.0002,0.0026,0.0067,0.0091,0.0127,0.0144,0.0178,0.0185,0.0206,0.024,0.021,0.0227,0.0176,0.0149,0.01,0.0041,0.0057,-0.0003,-0.0014,0.0031,0.0032,0.0015,0.0014,0.0022,0.0023,0.0023,0.0023,0,0.0002,0.0029,0.0071,0.0119,0.0134,0.0159,0.0212,0.024,0.0246,0.0287,0.0291,0.0276,0.0234,0.0171,0.011,0.0058,-0.0002,-0.0027,0.0022,0.0015,-0.0055,-0.0054,-0.0087,-0.0088,-0.0089,-0.009,-0.0091,0,0.0011,0.0033,0.0091,0.0125,0.0151,0.0192,0.023,0.0257,0.0296,0.0322,0.0351,0.0317,0.0296,0.0194,0.0108,-0.0005,-0.002,-0.006,-0.0058,-0.006,-0.0067,-0.0064,-0.0061,-0.0092,-0.0093,-0.0093,-0.0093,0,0.0031,0.0046,0.0084,0.0154,0.0204,0.026,0.0317,0.0348,0.0387,0.0388,0.0416,0.0356,0.0304,0.0206,0.0111,0.0032,-0.0042,-0.0071,-0.0069,-0.0068,-0.0067,-0.0072,-0.0068,-0.0097,-0.0096,-0.0096,-0.0096,0,0.004,0.007,0.0127,0.0188,0.0252,0.0327,0.0349,0.0408,0.0443,0.047,0.0475,0.0408,0.0368,0.0225,0.0139,0.0049,0.0026,-0.0004,-0.0006,-0.0003,0.002,0.0033,0.0023,0,0,0,0,0,0.0054,0.0102,0.0163,0.0244,0.0308,0.0353,0.0415,0.0435,0.0463,0.0497,0.0493,0.0444,0.0314,0.0251,0.016,0.0101,-0.0006,-0.0014,-0.0045,-0.0118,-0.0113,-0.0105,0,0,0,0,0,0,0.0071,0.0127,0.0169,0.0283,0.0343,0.0427,0.047,0.049,0.0509,0.0514,0.0452,0.0411,0.0285,0.0377,0.0159,0.0126,0.009,-0.0079,-0.0081,-0.012,-0.0116,-0.0113,-0.0102,0,0,0,0,0]}]]